Aviation Digital Data Service (ADDS)

Output produced by METARs form (0603 UTC 18 January 2018)
found at http://www.aviationweather.gov/adds/metars/
 
OMAA 180500Z 20006KT 9999 SCT040 16/11 Q1017 BECMG 26006KT
TAF OMAA 180500Z 1806/1912 24007KT 8000 SCT035 
     BECMG 1807/1809 31012KT 
     BECMG 1817/1819 VRB02KT 
     PROB40 1823/1905 4000 HZ 
     PROB30 
     TEMPO 1901/1904 16005KT 1000 BCFG BKN005 
     BECMG 1908/1910 35010KT
       
OMAA 180500Z 20006KT 9999 SCT040 16/11 Q1017 BECMG 26006KT
TAF OMAA 180500Z 1806/1912 24007KT 8000 SCT035 
     BECMG 1807/1809 31012KT 
     BECMG 1817/1819 VRB02KT 
     PROB40 1823/1905 4000 HZ 
     PROB30 
     TEMPO 1901/1904 16005KT 1000 BCFG BKN005 
     BECMG 1908/1910 35010KT
       
OMAD 180500Z 21005KT 170V270 9999 FEW043 17/13 Q1018 BECMG 27007KT
TAF OMAD 180500Z 1806/1912 24007KT 8000 SCT035 
     BECMG 1807/1809 31012KT 
     BECMG 1816/1818 VRB02KT 
     PROB40 1900/1905 4000 HZ 
     PROB30 
     TEMPO 1902/1904 16005KT 1000 BCFG BKN005 
     BECMG 1908/1910 35010KT
       
OMAL 180500Z VRB02KT 8000 FEW030 15/10 Q1019 BECMG 25008KT
TAF OMAL 180500Z 1806/1912 25006KT 8000 FEW035 
     BECMG 1808/1810 32010KT 
     BECMG 1819/1821 06005KT 
     PROB40 1820/1905 4000 HZ 
     PROB30 
     TEMPO 1822/1904 0500 FG VV002 
     BECMG 1907/1909 35009KT
       
OMDB 180500Z VRB08KT 9999 SCT046 16/11 Q1018 NOSIG
TAF OMDB 180509Z 1806/1912 20007KT 9999 SCT045 
     BECMG 1806/1808 28010KT 
     BECMG 1815/1817 16005KT 
     PROB30 1900/1905 4000 HZ 
     BECMG 1908/1910 35010KT
       
OMDW 180500Z 18009KT 9999 BKN045 15/11 Q1019 NOSIG
TAF OMDW 180509Z 1806/1912 17008KT 9999 BKN045 
     BECMG 1807/1809 30012KT 
     BECMG 1816/1818 17005KT 
     PROB40 1822/1906 3000 BR 
     PROB30 1900/1905 0100 FG VV/// 
     BECMG 1908/1910 33012KT
       
OMFJ 180500Z 29015KT 9999 FEW025 20/10 Q1017 A3003
TAF OMFJ 180500Z 1806/1912 28012KT 8000 NSC 
     TEMPO 1808/1814 09008KT 
     BECMG 1814/1816 VRB03KT 
     BECMG 1819/1821 29006KT
       
OMRK 180500Z 18010KT 9999 FEW040 18/11 Q1018 A3007
TAF OMRK 180509Z 1806/1912 18005KT 9999 FEW040 
     BECMG 1807/1809 29010KT 
     BECMG 1814/1816 VRB02KT 
     PROB30 1823/1905 3000 BR 
     BECMG 1908/1910 35010KT
       
OMSJ 180500Z 17007KT 9999 FEW040 17/10 Q1018
TAF OMSJ 180509Z 1806/1912 19005KT 9999 SCT040 
     BECMG 1807/1809 28010KT 
     BECMG 1815/1817 16005KT 
     PROB30 1900/1905 3000 BR 
     BECMG 1908/1910 35010KT
       
OMAL 180500Z VRB02KT 8000 FEW030 15/10 Q1019 BECMG 25008KT
TAF OMAL 180500Z 1806/1912 25006KT 8000 FEW035 
     BECMG 1808/1810 32010KT 
     BECMG 1819/1821 06005KT 
     PROB40 1820/1905 4000 HZ 
     PROB30 
     TEMPO 1822/1904 0500 FG VV002 
     BECMG 1907/1909 35009KT
       
OMAD 180500Z 21005KT 170V270 9999 FEW043 17/13 Q1018 BECMG 27007KT
TAF OMAD 180500Z 1806/1912 24007KT 8000 SCT035 
     BECMG 1807/1809 31012KT 
     BECMG 1816/1818 VRB02KT 
     PROB40 1900/1905 4000 HZ 
     PROB30 
     TEMPO 1902/1904 16005KT 1000 BCFG BKN005 
     BECMG 1908/1910 35010KT
       
OMDB 180500Z VRB08KT 9999 SCT046 16/11 Q1018 NOSIG
TAF OMDB 180509Z 1806/1912 20007KT 9999 SCT045 
     BECMG 1806/1808 28010KT 
     BECMG 1815/1817 16005KT 
     PROB30 1900/1905 4000 HZ 
     BECMG 1908/1910 35010KT
       
OMFJ 180500Z 29015KT 9999 FEW025 20/10 Q1017 A3003
TAF OMFJ 180500Z 1806/1912 28012KT 8000 NSC 
     TEMPO 1808/1814 09008KT 
     BECMG 1814/1816 VRB03KT 
     BECMG 1819/1821 29006KT
       
OMRK 180500Z 18010KT 9999 FEW040 18/11 Q1018 A3007
TAF OMRK 180509Z 1806/1912 18005KT 9999 FEW040 
     BECMG 1807/1809 29010KT 
     BECMG 1814/1816 VRB02KT 
     PROB30 1823/1905 3000 BR 
     BECMG 1908/1910 35010KT
       
OMAA 180500Z 20006KT 9999 SCT040 16/11 Q1017 BECMG 26006KT
TAF OMAA 180500Z 1806/1912 24007KT 8000 SCT035 
     BECMG 1807/1809 31012KT 
     BECMG 1817/1819 VRB02KT 
     PROB40 1823/1905 4000 HZ 
     PROB30 
     TEMPO 1901/1904 16005KT 1000 BCFG BKN005 
     BECMG 1908/1910 35010KT
       
OMAD 180500Z 21005KT 170V270 9999 FEW043 17/13 Q1018 BECMG 27007KT
TAF OMAD 180500Z 1806/1912 24007KT 8000 SCT035 
     BECMG 1807/1809 31012KT 
     BECMG 1816/1818 VRB02KT 
     PROB40 1900/1905 4000 HZ 
     PROB30 
     TEMPO 1902/1904 16005KT 1000 BCFG BKN005 
     BECMG 1908/1910 35010KT
       
OMAL 180500Z VRB02KT 8000 FEW030 15/10 Q1019 BECMG 25008KT
TAF OMAL 180500Z 1806/1912 25006KT 8000 FEW035 
     BECMG 1808/1810 32010KT 
     BECMG 1819/1821 06005KT 
     PROB40 1820/1905 4000 HZ 
     PROB30 
     TEMPO 1822/1904 0500 FG VV002 
     BECMG 1907/1909 35009KT
       
OMDB 180500Z VRB08KT 9999 SCT046 16/11 Q1018 NOSIG
TAF OMDB 180509Z 1806/1912 20007KT 9999 SCT045 
     BECMG 1806/1808 28010KT 
     BECMG 1815/1817 16005KT 
     PROB30 1900/1905 4000 HZ 
     BECMG 1908/1910 35010KT
       
OMDW 180500Z 18009KT 9999 BKN045 15/11 Q1019 NOSIG
TAF OMDW 180509Z 1806/1912 17008KT 9999 BKN045 
     BECMG 1807/1809 30012KT 
     BECMG 1816/1818 17005KT 
     PROB40 1822/1906 3000 BR 
     PROB30 1900/1905 0100 FG VV/// 
     BECMG 1908/1910 33012KT
       
OMFJ 180500Z 29015KT 9999 FEW025 20/10 Q1017 A3003
TAF OMFJ 180500Z 1806/1912 28012KT 8000 NSC 
     TEMPO 1808/1814 09008KT 
     BECMG 1814/1816 VRB03KT 
     BECMG 1819/1821 29006KT
       
OMRK 180500Z 18010KT 9999 FEW040 18/11 Q1018 A3007
TAF OMRK 180509Z 1806/1912 18005KT 9999 FEW040 
     BECMG 1807/1809 29010KT 
     BECMG 1814/1816 VRB02KT 
     PROB30 1823/1905 3000 BR 
     BECMG 1908/1910 35010KT
       
OMSJ 180500Z 17007KT 9999 FEW040 17/10 Q1018
TAF OMSJ 180509Z 1806/1912 19005KT 9999 SCT040 
     BECMG 1807/1809 28010KT 
     BECMG 1815/1817 16005KT 
     PROB30 1900/1905 3000 BR 
     BECMG 1908/1910 35010KT
       
OMSJ 180500Z 17007KT 9999 FEW040 17/10 Q1018
TAF OMSJ 180509Z 1806/1912 19005KT 9999 SCT040 
     BECMG 1807/1809 28010KT 
     BECMG 1815/1817 16005KT 
     PROB30 1900/1905 3000 BR 
     BECMG 1908/1910 35010KT
       
OMAA 180500Z 20006KT 9999 SCT040 16/11 Q1017 BECMG 26006KT
TAF OMAA 180500Z 1806/1912 24007KT 8000 SCT035 
     BECMG 1807/1809 31012KT 
     BECMG 1817/1819 VRB02KT 
     PROB40 1823/1905 4000 HZ 
     PROB30 
     TEMPO 1901/1904 16005KT 1000 BCFG BKN005 
     BECMG 1908/1910 35010KT
       
OMAD 180500Z 21005KT 170V270 9999 FEW043 17/13 Q1018 BECMG 27007KT
TAF OMAD 180500Z 1806/1912 24007KT 8000 SCT035 
     BECMG 1807/1809 31012KT 
     BECMG 1816/1818 VRB02KT 
     PROB40 1900/1905 4000 HZ 
     PROB30 
     TEMPO 1902/1904 16005KT 1000 BCFG BKN005 
     BECMG 1908/1910 35010KT
       
OMAL 180500Z VRB02KT 8000 FEW030 15/10 Q1019 BECMG 25008KT
TAF OMAL 180500Z 1806/1912 25006KT 8000 FEW035 
     BECMG 1808/1810 32010KT 
     BECMG 1819/1821 06005KT 
     PROB40 1820/1905 4000 HZ 
     PROB30 
     TEMPO 1822/1904 0500 FG VV002 
     BECMG 1907/1909 35009KT
       
OMDB 180500Z VRB08KT 9999 SCT046 16/11 Q1018 NOSIG
TAF OMDB 180509Z 1806/1912 20007KT 9999 SCT045 
     BECMG 1806/1808 28010KT 
     BECMG 1815/1817 16005KT 
     PROB30 1900/1905 4000 HZ 
     BECMG 1908/1910 35010KT
       
OMDW 180500Z 18009KT 9999 BKN045 15/11 Q1019 NOSIG
TAF OMDW 180509Z 1806/1912 17008KT 9999 BKN045 
     BECMG 1807/1809 30012KT 
     BECMG 1816/1818 17005KT 
     PROB40 1822/1906 3000 BR 
     PROB30 1900/1905 0100 FG VV/// 
     BECMG 1908/1910 33012KT
       
OMFJ 180500Z 29015KT 9999 FEW025 20/10 Q1017 A3003
TAF OMFJ 180500Z 1806/1912 28012KT 8000 NSC 
     TEMPO 1808/1814 09008KT 
     BECMG 1814/1816 VRB03KT 
     BECMG 1819/1821 29006KT
       
OMRK 180500Z 18010KT 9999 FEW040 18/11 Q1018 A3007
TAF OMRK 180509Z 1806/1912 18005KT 9999 FEW040 
     BECMG 1807/1809 29010KT 
     BECMG 1814/1816 VRB02KT 
     PROB30 1823/1905 3000 BR 
     BECMG 1908/1910 35010KT
       
OMSJ 180500Z 17007KT 9999 FEW040 17/10 Q1018
TAF OMSJ 180509Z 1806/1912 19005KT 9999 SCT040 
     BECMG 1807/1809 28010KT 
     BECMG 1815/1817 16005KT 
     PROB30 1900/1905 3000 BR 
     BECMG 1908/1910 35010KT